ALOS-2

Last updated on Sun Sep 06 2026 00:02:08 GMT+0000 (Coordinated Universal Time)

1 39766U 14029A 26247.74301310 .00001489 00000+0 20632-3 0 9994 2 39766 97.9219 343.7684 0001467 95.8930 264.2448 14.79462007663349
UTC large
Height (km)
Speed (km/s)
/
Latitude / Longitude
Inclination (degrees)
Orbital Period (minutes)
Azimuth
Elevation
Range (km)
Doppler Factor

Next 0 passes for location: London (51.5072 / 0.1276)

No passes found over London.